Location: Stockholm
(59.3330°N, 18.0500°E)
Time: 11:21:33
(UTC+01:00)

FENGYUN 1C DEB - Pass Details

Date: 10 December 2023
Orbit: 841 x 915 km, 98.8° (Epoch: 21 February)

Event Time Altitude Azimuth Distance (km) Brightness Sun altitude
Exits shadow 20:30:23 14° 341° (NNW) 2,182 ? -40.7°
Drops below altitude 10° 20:31:09 10° 341° (NNW) 2,482 ? -40.8°
Sets 20:33:32 0° 342° (NNW) 3,426 ? -41.1°
